Weather History for Paducah, KY

Change the Weather History Date:

Friday, February 18, 2011

  Actual Average Record
Temperature  
Mean Temperature 52 °F 40 °F  
Max Temperature 64 °F 50 °F 71 °F (1961)
Min Temperature 40 °F 30 °F 1 °F (1958)
Degree Days  
Heating Degree Days 13 25  
Month to date heating degree days 539 490  
Since 1 July heating degree days 3282 3063  
Cooling Degree Days 0 0  
Month to date cooling degree days 0 0  
Year to date cooling degree days 0 0  
Growing Degree Days 2 (Base 50)    
Moisture  
Dew Point 48 °F    
Average Humidity 74    
Maximum Humidity 93    
Minimum Humidity 55    
Precipitation  
Precipitation T in 0.14 in 2.00 in (1940)
Month to date precipitation 1.58 2.52  
Year to date precipitation 2.72 6.20  
Snow  
Snow 0.00 in 0.10 in 3.60 in (2006)
Month to date snowfall 9.0 2.2  
Since 1 July snowfall 18.9 7.5  
Snow Depth 0.00 in    
Sea Level Pressure  
Sea Level Pressure 30.15 in    
Wind  
Wind Speed 6 mph (West)    
Max Wind Speed 21 mph    
Max Gust Speed 31 mph    
Visibility 8 miles    
Events      
T = Trace of Precipitation, MM = Missing Value Source: NWS Daily Summary

Daily Weather History Graph

Daily Weather History Graph

Search for Another Location

Airport:

Trip Planner

Search our weather history database for the weather conditions in past years. The results will help you decide how hot, cold, wet, or windy it might be!

Date:

Astronomy

Feb. 18, 2011 Rise Set
Actual Time 6:40 AM CST 5:38 PM CST
Civil Twilight 6:14 AM CST 6:04 PM CST
Nautical Twilight 5:43 AM CST 6:34 PM CST
Astronomical Twilight 5:13 AM CST 7:05 PM CST
Moon 6:27 PM CST (2/18) 6:31 AM CST (2/18)
Length of Visible Light 11h 50m
Length of Day
10h 57m
Full, 100% of the Moon is Illuminated
Feb 18
Full
Feb 24
Last Quarter
Mar 4
New
Mar 12
First Quarter
Mar 19
Full

Hourly Weather History & Observations

Time (CST) Temp. Windchill Dew Point Humidity Pressure Visibility Wind Dir Wind Speed Gust Speed Precip Events Conditions
12:53 AM 63.0 °F - 53.1 °F 70% 29.98 in 10.0 mi SW 16.1 mph 23.0 mph N/A   Clear
1:53 AM 63.0 °F - 54.0 °F 72% 29.99 in 10.0 mi SW 16.1 mph 24.2 mph N/A   Overcast
2:53 AM 63.0 °F - 54.0 °F 72% 29.99 in 10.0 mi SW 16.1 mph 24.2 mph N/A   Mostly Cloudy
3:53 AM 62.1 °F - 54.0 °F 75% 30.00 in 10.0 mi SW 12.7 mph - N/A   Mostly Cloudy
4:53 AM 61.0 °F - 54.0 °F 78% 30.02 in 10.0 mi SW 9.2 mph - N/A   Mostly Cloudy
5:53 AM 60.1 °F - 54.0 °F 80% 30.04 in 10.0 mi SW 8.1 mph - N/A   Partly Cloudy
6:05 AM 60.8 °F - 53.6 °F 77% 30.05 in 10.0 mi SW 8.1 mph - N/A   Mostly Cloudy
6:53 AM 60.1 °F - 54.0 °F 80% 30.06 in 10.0 mi WSW 6.9 mph - N/A   Overcast
7:53 AM 61.0 °F - 55.0 °F 81% 30.10 in 10.0 mi WSW 9.2 mph - N/A   Overcast
8:53 AM 60.1 °F - 55.0 °F 83% 30.12 in 5.0 mi WNW 9.2 mph - N/A   Haze
9:00 AM 59.0 °F - 55.4 °F 88% 30.13 in 4.0 mi West 8.1 mph - N/A   Overcast
9:36 AM 57.2 °F - 55.4 °F 94% 30.15 in 2.0 mi WNW 4.6 mph - N/A   Overcast
9:40 AM 57.2 °F - 55.4 °F 94% 30.15 in 1.8 mi WNW 3.5 mph - N/A   Overcast
9:48 AM 57.2 °F - 55.4 °F 94% 30.15 in 2.0 mi WNW 4.6 mph - N/A   Overcast
9:53 AM 57.9 °F - 55.9 °F 93% 30.15 in 2.0 mi WNW 4.6 mph - N/A   Overcast
10:21 AM 59.0 °F - 55.4 °F 88% 30.17 in 4.0 mi Calm Calm - N/A   Overcast
10:53 AM 57.0 °F - 45.0 °F 64% 30.18 in 9.0 mi NNE 12.7 mph 21.9 mph N/A   Overcast
11:07 AM 57.2 °F - 39.2 °F 51% 30.19 in 10.0 mi NNE 13.8 mph - N/A   Overcast
11:51 AM 53.6 °F - 42.8 °F 67% 30.20 in 10.0 mi NE 8.1 mph - 0.00 in   Overcast
11:53 AM 54.0 °F - 43.0 °F 66% 30.20 in 10.0 mi NE 6.9 mph - 0.00 in   Overcast
12:53 PM 55.9 °F - 43.0 °F 62% 30.19 in 10.0 mi Calm Calm - N/A   Overcast
1:53 PM 57.0 °F - 41.0 °F 55% 30.19 in 10.0 mi Calm Calm - N/A   Overcast
2:53 PM 57.0 °F - 44.1 °F 62% 30.19 in 10.0 mi Calm Calm - N/A   Overcast
3:53 PM 55.9 °F - 44.1 °F 64% 30.21 in 10.0 mi Calm Calm - 0.00 in   Overcast
4:53 PM 54.0 °F - 44.1 °F 69% 30.23 in 10.0 mi SSW 3.5 mph - N/A   Overcast
5:53 PM 53.1 °F - 44.1 °F 71% 30.24 in 10.0 mi Calm Calm - N/A   Overcast
6:53 PM 48.9 °F - 43.0 °F 80% 30.25 in 10.0 mi Calm Calm - N/A   Scattered Clouds
7:53 PM 44.1 °F - 41.0 °F 89% 30.26 in 10.0 mi Calm Calm - N/A   Partly Cloudy
8:53 PM 42.8 °F - 39.2 °F 87% 30.28 in 10.0 mi Calm Calm - N/A   Scattered Clouds
9:53 PM 41.0 °F - 37.9 °F 89% 30.29 in 9.0 mi Calm Calm - N/A   Mostly Cloudy
10:53 PM 42.1 °F - 39.0 °F 89% 30.28 in 9.0 mi Calm Calm - N/A   Overcast
11:53 PM 42.8 °F 40.1 °F 39.2 °F 87% 30.29 in 10.0 mi NNE 4.6 mph - N/A   Overcast